FW1090 Weather Reports


time (UTC)temp
C
wind
direction
speed
KPH
gust
KPH
rain 1hr
cm
rain 24hr
cm
rain mn
cm
humidity
%
barometer
mb
20260901204547 17 196 0.0 0.0 0.00 0.00 0.00 84 993.8
20260901203049 17 214 0.0 9.7 0.00 0.00 0.00 85 994.0
20260901201542 17 228 0.0 3.2 0.00 0.00 0.00 84 993.9
20260901200053 17 233 0.0 0.0 0.00 0.00 0.00 85 994.0
20260901194559 17 238 0.0 0.0 0.00 0.00 0.00 85 994.1
20260901193040 17 237 0.0 0.0 0.00 0.00 0.00 86 994.2
20260901191542 16 207 0.0 4.8 0.00 0.00 0.00 86 994.2
20260901190046 17 202 0.0 0.0 0.00 0.00 0.00 85 994.3
20260901184537 17 210 0.0 0.0 0.00 0.00 0.00 85 994.2
20260901183041 16 187 0.0 0.0 0.00 0.00 0.00 86 994.2
20260901181533 16 193 0.0 1.6 0.00 0.00 0.00 87 994.3
20260901180029 15 148 0.0 0.0 0.00 0.00 0.00 88 994.2
20260901174529 15 233 0.0 1.6 0.00 0.00 0.00 88 994.1
20260901173025 15 107 0.0 4.8 0.00 0.00 0.00 90 993.9
20260901171524 15 207 0.0 0.0 0.00 0.00 0.00 91 994.0
20260901170021 14 136 0.0 0.0 0.00 0.00 0.00 92 993.9
20260901164519 14 148 0.0 0.0 0.00 0.00 0.00 93 994.0
20260901163017 13 154 0.0 0.0 0.00 0.00 0.00 95 994.1
20260901161515 13 152 0.0 0.0 0.00 0.00 0.00 96 994.2
20260901160014 13 143 0.0 0.0 0.00 0.00 0.00 96 994.2
20260901154512 13 145 0.0 0.0 0.00 0.00 0.00 96 994.2
20260901153013 12 174 0.0 0.0 0.00 0.00 0.00 96 994.2
20260901151508 12 222 0.0 0.0 0.00 0.00 0.00 97 994.4
20260901150007 11 218 0.0 0.0 0.00 0.00 0.00 97 994.3
20260901144508 10 91 0.0 0.0 0.00 0.00 0.00 96 994.2
20260901143006 10 91 0.0 0.0 0.00 0.00 0.00 96 994.1
20260901141503 10 90 0.0 0.0 0.00 0.00 0.00 96 993.9
20260901140004 10 91 0.0 0.0 0.00 0.00 0.00 96 993.8
20260901134502 10 73 0.0 0.0 0.00 0.00 0.00 95 993.8
20260901133103 10 73 0.0 0.0 0.00 0.00 0.00 95 993.6
20260901131605 10 71 0.0 0.0 0.00 0.00 0.00 96 993.5
20260901130059 10 74 0.0 0.0 0.00 0.00 0.00 96 993.4
20260901124559 10 75 0.0 0.0 0.00 0.00 0.00 95 993.3
20260901123057 10 101 0.0 0.0 0.00 0.00 0.00 96 993.3
20260901121609 10 231 0.0 0.0 0.00 0.00 0.00 96 993.3
20260901120104 10 231 0.0 0.0 0.00 0.00 0.00 96 993.2
20260901114600 10 117 0.0 0.0 0.00 0.00 0.00 95 993.3
20260901113052 10 117 0.0 0.0 0.00 0.00 0.00 95 993.1
20260901111553 10 117 0.0 0.0 0.00 0.00 0.00 95 993.0
20260901110051 10 88 0.0 0.0 0.00 0.00 0.00 95 992.9
20260901104549 10 84 0.0 0.0 0.00 0.00 0.00 95 993.1
20260901103056 10 90 0.0 0.0 0.00 0.00 0.00 95 992.9
20260901101552 10 90 0.0 0.0 0.00 0.00 0.00 95 992.9
20260901100047 10 89 0.0 0.0 0.00 0.00 0.00 95 992.8
20260901094545 10 89 0.0 0.0 0.00 0.00 0.00 94 992.5
20260901093111 10 102 0.0 0.0 0.00 0.00 0.00 94 992.6
20260901091557 10 102 0.0 0.0 0.00 0.00 0.00 94 992.6
20260901090040 10 102 0.0 0.0 0.00 0.00 0.00 94 992.5
20260901084537 11 102 0.0 0.0 0.00 0.00 0.00 94 992.4
20260901083043 11 102 0.0 0.0 0.00 0.00 0.00 94 992.4
20260901081536 11 102 0.0 0.0 0.00 0.00 0.00 94 992.3
20260901080032 11 103 0.0 0.0 0.00 0.00 0.00 93 992.2
20260901074531 12 70 0.0 0.0 0.00 0.00 0.00 94 992.2
20260901073028 12 70 0.0 0.0 0.00 0.00 0.00 93 992.1
20260901071529 12 70 0.0 0.0 0.00 0.00 0.00 93 992.0
20260901070028 12 69 0.0 0.0 0.00 0.00 0.00 94 992.0
20260901064523 12 167 0.0 0.0 0.00 0.00 0.00 93 992.1
20260901063022 12 167 0.0 0.0 0.00 0.00 0.00 92 992.0
20260901061522 12 167 0.0 0.0 0.00 0.00 0.00 92 992.1
20260901060022 13 167 0.0 0.0 0.00 0.00 0.00 92 992.3
20260901054521 13 167 0.0 0.0 0.00 0.00 0.00 91 992.3
20260901053023 13 167 0.0 0.0 0.00 0.00 0.00 90 992.3
20260901051520 13 167 0.0 0.0 0.00 0.00 0.00 90 992.4
20260901050020 14 167 0.0 0.0 0.00 0.00 0.00 90 992.3
20260901044519 14 167 0.0 0.0 0.00 0.00 0.00 89 992.4
20260901043019 15 174 0.0 0.0 0.00 0.00 0.00 88 992.5
20260901041518 16 253 0.0 0.0 0.00 0.00 0.00 86 992.4
20260901040020 16 253 0.0 0.0 0.00 0.00 0.00 85 992.3
20260901034516 17 253 0.0 0.0 0.00 0.00 0.00 83 992.1
20260901033033 17 253 0.0 0.0 0.00 0.00 0.00 79 991.9
20260901031516 18 253 0.0 0.0 0.00 0.00 0.00 76 991.8
20260901030016 20 253 0.0 0.0 0.00 0.00 0.00 74 991.8
20260901024516 20 253 0.0 0.0 0.00 0.00 0.00 72 991.8
20260901023014 21 252 0.0 0.0 0.00 0.00 0.00 70 991.8
20260901021518 22 290 0.0 0.0 0.00 0.00 0.00 69 991.7
20260901020013 21 288 0.0 0.0 0.00 0.00 0.00 68 991.7
20260901014512 23 275 0.0 0.0 0.00 0.00 0.00 66 991.7
20260901013012 23 298 0.0 4.8 0.00 0.00 0.00 65 991.6
20260901011511 23 258 0.0 0.0 0.00 0.00 0.00 65 991.6
20260901010011 23 264 0.0 3.2 0.00 0.00 0.00 63 991.5
20260901004510 23 301 0.0 6.4 0.00 0.00 0.00 64 991.6
20260901003012 24 268 0.0 0.0 0.00 0.00 0.00 62 991.7
20260901001514 24 274 0.0 0.0 0.00 0.00 0.00 63 991.7
20260901000007 25 313 0.0 9.7 0.00 0.00 0.00 61 991.9
20260831234517 25 295 1.6 9.7 0.00 0.00 0.00 61 992.0
20260831233004 25 272 3.2 16.1 0.00 0.00 0.00 62 992.1
20260831231502 24 307 0.0 8.0 0.00 0.00 0.00 62 992.3
20260831230000 24 287 0.0 6.4 0.00 0.00 0.00 63 992.4
20260831224559 25 326 0.0 14.5 0.00 0.00 0.00 60 992.5
20260831223058 25 337 1.6 9.7 0.00 0.00 0.00 61 992.8
20260831221601 24 321 0.0 6.4 0.00 0.00 0.00 61 992.9
20260831220119 25 209 1.6 14.5 0.00 0.00 0.00 61 993.1
20260831214552 24 244 0.0 11.3 0.00 0.00 0.00 61 993.2
20260831213050 24 324 1.6 9.7 0.00 0.00 0.00 62 993.3
20260831211548 24 11 0.0 8.0 0.00 0.00 0.00 61 993.4
20260831210046 23 15 1.6 14.5 0.00 0.00 0.00 64 993.8